#timestamp,LO_Frequency,Hit,StdDev 
1618610415.2,286046998.2,N
1618610435.1,286046998.1,N
1618610436.0,286046998.1,N
1618610455.8,286046998.2,N
1618610475.6,286046998.6,N
1618610495.5,286046998.2,N
1618610515.3,286047000.8,N
1618610535.1,286046998.3,N
1618610555.9,286046998.8,N
1618610575.7,286047001.1,N
1618610595.6,286046998.1,N
1618610615.4,286047000.8,N
1618610635.2,286047000.5,N
1618610655.1,286047000.3,N
1618610656.0,286047000.3,N
1618610675.8,286047000.6,N
1618610695.7,286047001.0,N
1618610715.5,286047000.7,N
1618610735.3,286047001.2,N
1618610755.2,286047000.9,N
1618610775.0,286047001.2,N
1618610775.9,286047001.2,N
1618610795.7,286047000.6,N
1618610815.6,286047000.0,N
1618610835.4,286047002.3,N
1618610855.3,286047002.2,N
1618610875.1,286047002.3,N
1618610876.0,286047002.3,N
1618610895.8,286046999.7,N
1618610915.7,286047002.3,N
1618610935.5,286046999.7,N
1618610955.4,286047002.4,N
1618610975.2,286047002.6,N
1618610995.0,286047002.4,N
1618610995.9,286047002.4,N
1618611015.8,286046999.8,N
1618611035.6,286047001.0,N
1618611055.4,286047000.5,N
1618611075.3,286047000.5,N
1618611095.1,286047002.3,N
1618611115.9,286047002.4,N
1618611135.7,286046999.9,N
1618611155.5,286047000.2,N
1618611175.4,286047000.2,N
1618611195.2,286047000.1,N
1618611215.1,286047000.3,N
1618611216.0,286047000.3,N
1618611235.8,286047000.5,N
1618611255.6,286047000.4,N
1618611275.5,286047000.2,N
1618611295.3,286046999.7,N
1618611315.1,286046999.9,N
1618611335.9,286047000.5,N
1618611355.7,286047000.1,N
1618611375.6,286046999.8,N
1618611395.4,286046999.9,N
1618611415.2,286047000.0,N
1618611435.1,286046999.9,N
1618611436.0,286046999.9,N
1618611455.8,286047000.6,N
1618611475.7,286047000.2,N
1618611495.5,286047000.0,N
1618611515.3,286047000.7,N
1618611535.2,286047000.4,N
1618611555.0,286047001.2,N
1618611555.9,286047001.2,N
1618611575.7,286047000.9,N
1618611595.6,286047001.0,N
1618611615.4,286047001.0,N
1618611635.3,286047000.6,N
1618611655.1,286047000.9,N
1618611656.0,286047000.9,N
1618611675.8,286046998.2,Y
1618611695.7,286046998.1,P
1618611715.5,286046998.1,N
1618611735.4,286046998.8,N
1618611755.2,286046998.8,N
1618611775.0,286046998.8,N
1618611775.9,286046998.8,N
1618611795.8,286046998.5,N
1618611815.6,286046998.2,N
1618611835.4,286047000.4,N
1618611855.3,286047000.4,N
1618611875.1,286047000.0,N
1618611895.9,286047000.5,N
1618611915.7,286047001.0,N
1618611935.5,286047000.5,N
1618611955.4,286046998.5,N
1618611975.2,286047000.7,N
1618611995.0,286047000.5,N
1618611995.9,286047000.5,N
1618612015.8,286047000.2,N
1618612035.6,286047000.9,N
1618612055.5,286047001.0,N
1618612075.3,286047000.4,N
1618612095.1,286047000.6,N
1618612115.9,286047001.1,N
1618612135.7,286047001.0,N
1618612155.6,286047001.2,N
1618612175.4,286047001.0,N
1618612195.2,286047001.0,N
1618612215.1,286047000.4,N
1618612216.0,286047000.4,N
1618612235.8,286047000.0,N
1618612255.6,286047000.5,N
1618612275.5,286046998.5,N
1618612295.3,286047000.8,N
1618612315.2,286047001.0,N
1618612335.9,286047000.4,N
1618612355.7,286047000.6,N
1618612375.6,286046998.1,N
1618612395.4,286046998.3,N
1618612415.2,286047001.1,N
1618612435.1,286046998.6,N
1618612436.0,286046998.6,N
1618612455.8,286046999.9,N
1618612475.7,286047000.4,N
1618612495.5,286047000.3,N
1618612515.3,286047000.3,N
1618612535.2,286047000.0,N
1618612555.0,286047000.1,N
1618612555.9,286047000.1,N
1618612575.8,286047000.2,N
1618612595.6,286047000.1,N
1618612615.4,286046999.7,N
1618612635.3,286047000.1,N
1618612655.1,286047000.0,N
1618612675.9,286047000.2,N
1618612695.7,286047000.0,N
1618612715.5,286047000.3,N
1618612735.4,286047000.9,N
1618612755.2,286047000.2,N
1618612775.0,286047000.4,N
1618612775.9,286047000.4,N
1618612795.8,286046999.8,N
1618612815.6,286047000.5,N
1618612835.5,286047000.2,N
1618612855.3,286047000.3,N
1618612875.1,286047002.8,Y
1618612895.9,286047002.8,P
1618612915.7,286047002.0,N
1618612935.5,286047002.3,N
1618612955.4,286047002.8,N
1618612975.2,286047000.3,N
1618612995.1,286047002.8,N
1618612996.0,286047002.8,N
1618613015.8,286047002.4,N
1618613035.6,286047002.4,N
1618613055.5,286047002.7,N
1618613075.3,286046999.9,N
1618613095.1,286047002.8,N
1618613115.9,286047002.4,N
1618613135.7,286047002.2,N
1618613155.6,286047002.6,N
1618613175.4,286047002.3,N
1618613195.2,286046999.7,N
1618613215.1,286047002.8,N
1618613216.0,286047002.8,N
1618613235.8,286047002.4,N
1618613255.6,286047002.2,N
1618613275.5,286047002.2,N
1618613295.3,286047002.7,N
1618613315.2,286047002.0,N
1618613335.9,286047001.5,N
1618613355.7,286047002.0,N
1618613375.6,286047001.6,N
1618613395.4,286047002.2,N
1618613415.2,286047002.7,N
1618613435.1,286047002.3,N
1618613436.0,286047002.3,N
1618613455.8,286047002.8,Y
1618613475.7,286047000.5,P
1618613495.5,286047001.0,N
1618613515.3,286047001.0,N
1618613535.2,286047000.9,N
1618613555.0,286047001.1,N
1618613555.9,286047001.1,N
1618613575.8,286047000.7,N
1618613595.6,286047001.2,N
1618613615.4,286047000.5,N
1618613635.3,286047000.8,N
1618613655.1,286046999.0,N
1618613675.9,286046999.0,N
1618613695.7,286046998.6,N
1618613715.5,286046998.8,N
1618613735.4,286046999.5,N
1618613755.2,286046998.8,N
1618613775.0,286046999.0,N
1618613775.9,286046999.0,N
1618613795.8,286046999.1,N
1618613815.6,286046999.6,N
1618613835.5,286046996.7,Y
1618613855.3,286046999.2,P
1618613875.1,286046996.6,P
1618613895.9,286046999.5,N
1618613915.7,286046996.5,N
1618613935.5,286046999.2,N
1618613955.4,286046996.9,N
1618613975.2,286046998.8,N
1618613995.1,286046998.3,N
1618613996.0,286046998.3,N
